Volver al catálogo

CHINASAT 9A

ActivoComunicacionesGEO
NORAD 42763·PAYLOAD·🇨🇳 China

Lanzado Jun 18, 2017 desde Xichang Satellite Launch Center

Loading…

TLE

ActualizadoSource: Space-Track

Época: Sep 14, 2026, 11:01 UTC

1 42763U 17035A   26257.45942465 -.00000346  00000-0  00000-0 0  9993
2 42763   5.2073  74.0775 0000748 333.3069 247.1166  0.99790606 34546

Sigue CHINASAT 9A en tiempo real con AllMySat

Download on the App Store